Time,TemperatureF,DewpointF,PressureIn,WindDirection,WindDirectionDegrees,WindSpeedMPH,WindSpeedGustMPH,Humidity,HourlyPrecipIn,Conditions,Clouds,dailyrainin,SoftwareType,DateUTC
2013-06-01 00:03:00,73.0,71.0,30.08,East,88,2.0,8.0,93,0.00,,,0.08,,2013-06-01 04:03:00,
2013-06-01 00:12:00,73.0,71.0,30.08,East,88,2.0,8.0,93,0.00,,,0.08,,2013-06-01 04:12:00,
2013-06-01 00:23:00,73.0,71.0,30.08,ESE,107,2.0,5.0,93,0.00,,,0.08,,2013-06-01 04:23:00,
2013-06-01 00:33:00,73.0,71.0,30.07,East,100,2.0,9.0,94,0.00,,,0.08,,2013-06-01 04:33:00,
2013-06-01 00:42:00,73.0,71.0,30.06,ESE,102,2.0,7.0,94,0.00,,,0.08,,2013-06-01 04:42:00,
2013-06-01 00:53:00,73.0,71.0,30.06,ESE,102,2.0,7.0,94,0.00,,,0.08,,2013-06-01 04:53:00,
2013-06-01 01:02:00,73.0,71.0,30.06,ENE,64,2.0,7.0,95,0.00,,,0.08,,2013-06-01 05:02:00,
2013-06-01 01:12:00,73.0,71.0,30.06,ENE,64,2.0,7.0,95,0.00,,,0.08,,2013-06-01 05:12:00,
2013-06-01 01:22:00,73.0,71.0,30.05,ENE,69,4.0,8.0,95,0.00,,,0.08,,2013-06-01 05:22:00,
2013-06-01 01:32:00,73.0,71.0,30.05,East,80,2.0,7.0,95,0.00,,,0.08,,2013-06-01 05:32:00,
2013-06-01 01:42:00,73.0,71.0,30.05,East,82,2.0,7.0,95,0.00,,,0.08,,2013-06-01 05:42:00,
2013-06-01 01:52:00,73.0,71.0,30.05,East,82,2.0,7.0,95,0.00,,,0.08,,2013-06-01 05:52:00,
2013-06-01 02:01:00,73.0,71.0,30.04,ENE,64,3.0,9.0,95,0.00,,,0.08,,2013-06-01 06:01:00,
2013-06-01 02:12:00,73.0,71.0,30.04,ENE,64,3.0,9.0,95,0.00,,,0.08,,2013-06-01 06:12:00,
2013-06-01 02:22:00,73.0,71.0,30.03,ENE,67,2.0,8.0,95,0.00,,,0.08,,2013-06-01 06:22:00,
2013-06-01 02:32:00,72.0,70.0,30.03,East,85,2.0,8.0,95,0.00,,,0.08,,2013-06-01 06:32:00,
2013-06-01 02:42:00,72.0,70.0,30.03,ESE,105,3.0,5.0,95,0.00,,,0.08,,2013-06-01 06:42:00,
2013-06-01 02:52:00,72.0,70.0,30.03,ESE,105,3.0,5.0,95,0.00,,,0.08,,2013-06-01 06:52:00,
2013-06-01 03:01:00,72.0,71.0,30.02,East,86,3.0,7.0,96,0.00,,,0.08,,2013-06-01 07:01:00,
2013-06-01 03:11:00,72.0,71.0,30.02,East,86,3.0,7.0,96,0.00,,,0.08,,2013-06-01 07:11:00,
2013-06-01 03:22:00,72.0,71.0,30.02,East,79,1.0,5.0,96,0.00,,,0.08,,2013-06-01 07:22:00,
2013-06-01 03:32:00,72.0,71.0,30.01,ESE,107,2.0,6.0,96,0.00,,,0.08,,2013-06-01 07:32:00,
2013-06-01 03:42:00,72.0,71.0,30.01,ENE,77,2.0,7.0,97,0.00,,,0.08,,2013-06-01 07:42:00,
2013-06-01 03:52:00,72.0,71.0,30.01,ENE,77,2.0,7.0,97,0.00,,,0.08,,2013-06-01 07:52:00,
2013-06-01 04:02:00,72.0,71.0,30.01,ENE,61,1.0,5.0,97,0.00,,,0.08,,2013-06-01 08:02:00,
2013-06-01 04:11:00,72.0,71.0,30.01,ENE,61,1.0,5.0,97,0.00,,,0.08,,2013-06-01 08:11:00,
2013-06-01 04:22:00,72.0,71.0,30.01,ENE,73,2.0,5.0,97,0.00,,,0.08,,2013-06-01 08:22:00,
2013-06-01 04:32:00,73.0,72.0,30.01,ENE,68,2.0,9.0,96,0.00,,,0.08,,2013-06-01 08:32:00,
2013-06-01 04:42:00,73.0,72.0,30.01,East,83,3.0,7.0,96,0.00,,,0.08,,2013-06-01 08:42:00,
2013-06-01 04:52:00,73.0,72.0,30.01,East,83,3.0,7.0,96,0.00,,,0.08,,2013-06-01 08:52:00,
2013-06-01 05:02:00,72.0,71.0,30.01,East,88,2.0,5.0,96,0.00,,,0.08,,2013-06-01 09:02:00,
2013-06-01 05:12:00,72.0,71.0,30.01,East,88,2.0,5.0,96,0.00,,,0.08,,2013-06-01 09:12:00,
2013-06-01 05:22:00,72.0,71.0,30.00,East,90,2.0,6.0,96,0.00,,,0.08,,2013-06-01 09:22:00,
2013-06-01 05:33:00,72.0,71.0,30.00,East,94,3.0,8.0,96,0.00,,,0.08,,2013-06-01 09:33:00,
2013-06-01 05:43:00,72.0,71.0,30.00,East,94,3.0,8.0,96,0.00,,,0.08,,2013-06-01 09:43:00,
2013-06-01 05:53:00,72.0,71.0,30.01,ENE,71,3.0,8.0,96,0.00,,,0.08,,2013-06-01 09:53:00,
2013-06-01 06:02:00,72.0,71.0,30.01,East,92,2.0,8.0,96,0.00,,,0.08,,2013-06-01 10:02:00,
2013-06-01 06:13:00,72.0,71.0,30.01,East,92,2.0,8.0,96,0.00,,,0.08,,2013-06-01 10:13:00,
2013-06-01 06:22:00,72.0,71.0,30.01,NE,53,2.0,5.0,97,0.00,,,0.08,,2013-06-01 10:22:00,
2013-06-01 06:33:00,72.0,71.0,30.02,ENE,64,1.0,5.0,97,0.00,,,0.08,,2013-06-01 10:33:00,
2013-06-01 06:42:00,72.0,71.0,30.02,ENE,64,1.0,5.0,97,0.00,,,0.08,,2013-06-01 10:42:00,
2013-06-01 06:52:00,72.0,71.0,30.02,ENE,65,2.0,6.0,97,0.00,,,0.08,,2013-06-01 10:52:00,
2013-06-01 07:03:00,72.0,71.0,30.02,ENE,67,2.0,7.0,97,0.00,,,0.08,,2013-06-01 11:03:00,
2013-06-01 07:11:00,72.0,71.0,30.02,ENE,67,2.0,7.0,97,0.00,,,0.08,,2013-06-01 11:11:00,
2013-06-01 07:22:00,72.0,71.0,30.03,NE,47,2.0,6.0,97,0.00,,,0.08,,2013-06-01 11:22:00,
2013-06-01 07:33:00,73.0,72.0,30.03,ENE,67,1.0,5.0,97,0.00,,,0.08,,2013-06-01 11:33:00,
2013-06-01 07:42:00,73.0,72.0,30.03,ENE,67,1.0,5.0,97,0.00,,,0.08,,2013-06-01 11:42:00,
2013-06-01 07:52:00,73.0,72.0,30.03,East,94,3.0,6.0,97,0.00,,,0.08,,2013-06-01 11:52:00,
2013-06-01 08:01:00,74.0,73.0,30.03,NNE,28,3.0,8.0,97,0.00,,,0.08,,2013-06-01 12:01:00,
2013-06-01 08:12:00,74.0,73.0,30.03,NNE,28,3.0,8.0,97,0.00,,,0.08,,2013-06-01 12:12:00,
2013-06-01 08:22:00,74.0,73.0,30.04,ENE,70,5.0,8.0,96,0.00,,,0.08,,2013-06-01 12:22:00,
2013-06-01 08:32:00,75.0,74.0,30.04,East,84,3.0,11.0,96,0.00,,,0.08,,2013-06-01 12:32:00,
2013-06-01 08:42:00,75.0,74.0,30.04,East,84,3.0,11.0,96,0.00,,,0.08,,2013-06-01 12:42:00,
2013-06-01 08:52:00,76.0,74.0,30.05,ENE,78,4.0,13.0,94,0.00,,,0.08,,2013-06-01 12:52:00,
2013-06-01 09:01:00,77.0,74.0,30.05,East,79,7.0,14.0,92,0.00,,,0.08,,2013-06-01 13:01:00,
2013-06-01 09:12:00,77.0,74.0,30.05,East,79,7.0,14.0,92,0.00,,,0.08,,2013-06-01 13:12:00,
2013-06-01 09:22:00,78.0,75.0,30.05,ESE,107,7.0,11.0,91,0.00,,,0.08,,2013-06-01 13:22:00,
2013-06-01 09:32:00,78.0,75.0,30.05,ESE,111,4.0,10.0,90,0.00,,,0.08,,2013-06-01 13:32:00,
2013-06-01 09:42:00,78.0,75.0,30.05,ESE,111,4.0,10.0,90,0.00,,,0.08,,2013-06-01 13:42:00,
2013-06-01 09:52:00,78.0,75.0,30.05,ESE,105,5.0,11.0,90,0.00,,,0.08,,2013-06-01 13:52:00,
2013-06-01 10:02:00,78.0,75.0,30.05,East,92,5.0,12.0,90,0.00,,,0.08,,2013-06-01 14:02:00,
2013-06-01 10:11:00,78.0,75.0,30.05,East,92,5.0,12.0,90,0.00,,,0.08,,2013-06-01 14:11:00,
2013-06-01 10:21:00,79.0,75.0,30.05,SE,130,4.0,10.0,88,0.00,,,0.08,,2013-06-01 14:21:00,
2013-06-01 10:32:00,79.0,75.0,30.04,East,83,4.0,10.0,89,0.00,,,0.08,,2013-06-01 14:32:00,
2013-06-01 10:42:00,79.0,75.0,30.04,East,83,4.0,10.0,89,0.00,,,0.08,,2013-06-01 14:42:00,
2013-06-01 10:52:00,80.0,76.0,30.04,ENE,74,5.0,11.0,87,0.00,,,0.08,,2013-06-01 14:52:00,
2013-06-01 11:02:00,80.0,75.0,30.04,SE,144,4.0,11.0,86,0.00,,,0.08,,2013-06-01 15:02:00,
2013-06-01 11:11:00,80.0,75.0,30.04,SE,144,4.0,11.0,86,0.00,,,0.08,,2013-06-01 15:11:00,
2013-06-01 11:22:00,80.0,75.0,30.04,East,99,6.0,12.0,85,0.00,,,0.08,,2013-06-01 15:22:00,
2013-06-01 11:33:00,81.0,76.0,30.04,ENE,71,5.0,10.0,86,0.00,,,0.08,,2013-06-01 15:33:00,
2013-06-01 11:43:00,81.0,76.0,30.04,ENE,71,5.0,10.0,86,0.00,,,0.08,,2013-06-01 15:43:00,
2013-06-01 11:53:00,80.0,74.0,30.04,ESE,121,7.0,13.0,83,0.00,,,0.08,,2013-06-01 15:53:00,
2013-06-01 12:03:00,82.0,76.0,30.04,ESE,104,4.0,10.0,83,0.00,,,0.08,,2013-06-01 16:03:00,
2013-06-01 12:12:00,82.0,76.0,30.04,ESE,104,4.0,10.0,83,0.00,,,0.08,,2013-06-01 16:12:00,
2013-06-01 12:23:00,81.0,75.0,30.03,East,89,6.0,10.0,82,0.00,,,0.08,,2013-06-01 16:23:00,
2013-06-01 12:33:00,83.0,77.0,30.03,ESE,113,5.0,10.0,83,0.00,,,0.08,,2013-06-01 16:33:00,
2013-06-01 12:42:00,83.0,77.0,30.03,ESE,113,5.0,10.0,83,0.00,,,0.08,,2013-06-01 16:42:00,
2013-06-01 12:52:00,82.0,76.0,30.03,ESE,121,5.0,10.0,83,0.00,,,0.08,,2013-06-01 16:52:00,
2013-06-01 13:02:00,83.0,78.0,30.03,ESE,115,3.0,10.0,86,0.00,,,0.08,,2013-06-01 17:02:00,
2013-06-01 13:12:00,83.0,78.0,30.03,ESE,115,3.0,10.0,86,0.00,,,0.08,,2013-06-01 17:12:00,
2013-06-01 13:22:00,84.0,76.0,30.03,ESE,111,6.0,12.0,77,0.00,,,0.08,,2013-06-01 17:22:00,
2013-06-01 13:32:00,85.0,78.0,30.02,SE,128,2.0,9.0,79,0.00,,,0.08,,2013-06-01 17:32:00,
2013-06-01 13:42:00,85.0,78.0,30.02,SE,128,2.0,9.0,79,0.00,,,0.08,,2013-06-01 17:42:00,
2013-06-01 13:52:00,86.0,78.0,30.02,East,84,4.0,11.0,77,0.00,,,0.08,,2013-06-01 17:52:00,
2013-06-01 14:01:00,84.0,78.0,30.02,ESE,112,5.0,9.0,81,0.00,,,0.08,,2013-06-01 18:01:00,
2013-06-01 14:12:00,84.0,78.0,30.02,ESE,112,5.0,9.0,81,0.00,,,0.08,,2013-06-01 18:12:00,
2013-06-01 14:22:00,86.0,77.0,30.01,ENE,77,6.0,14.0,74,0.00,,,0.08,,2013-06-01 18:22:00,
2013-06-01 14:32:00,86.0,77.0,30.01,SE,129,8.0,14.0,75,0.00,,,0.08,,2013-06-01 18:32:00,
2013-06-01 14:42:00,86.0,77.0,30.01,SE,129,8.0,14.0,75,0.00,,,0.08,,2013-06-01 18:42:00,
2013-06-01 14:52:00,87.0,80.0,30.00,ENE,61,5.0,8.0,79,0.00,,,0.08,,2013-06-01 18:52:00,
2013-06-01 15:02:00,84.0,77.0,29.99,ENE,73,5.0,11.0,79,0.00,,,0.08,,2013-06-01 19:02:00,
2013-06-01 15:12:00,84.0,77.0,29.99,ENE,73,5.0,11.0,79,0.00,,,0.08,,2013-06-01 19:12:00,
2013-06-01 15:21:00,87.0,77.0,29.98,East,96,3.0,13.0,73,0.00,,,0.08,,2013-06-01 19:21:00,
2013-06-01 15:32:00,88.0,78.0,29.98,NE,53,5.0,11.0,72,0.00,,,0.08,,2013-06-01 19:32:00,
2013-06-01 15:42:00,88.0,78.0,29.98,NE,53,5.0,11.0,72,0.00,,,0.08,,2013-06-01 19:42:00,
2013-06-01 15:52:00,89.0,78.0,29.97,ENE,60,6.0,12.0,71,0.00,,,0.08,,2013-06-01 19:52:00,
2013-06-01 16:02:00,89.0,78.0,29.98,East,92,6.0,13.0,71,0.00,,,0.08,,2013-06-01 20:02:00,
2013-06-01 16:12:00,89.0,78.0,29.98,East,92,6.0,13.0,71,0.00,,,0.08,,2013-06-01 20:12:00,
2013-06-01 16:21:00,89.0,79.0,29.97,NE,49,5.0,10.0,72,0.00,,,0.08,,2013-06-01 20:21:00,
2013-06-01 16:32:00,89.0,77.0,29.96,ESE,113,4.0,8.0,68,0.00,,,0.08,,2013-06-01 20:32:00,
2013-06-01 16:42:00,89.0,77.0,29.96,ESE,113,4.0,8.0,68,0.00,,,0.08,,2013-06-01 20:42:00,
2013-06-01 16:52:00,85.0,76.0,29.96,East,101,3.0,11.0,75,0.00,,,0.08,,2013-06-01 20:52:00,
2013-06-01 17:02:00,83.0,75.0,29.96,ESE,118,3.0,11.0,78,0.00,,,0.08,,2013-06-01 21:02:00,
2013-06-01 17:12:00,83.0,76.0,29.95,East,81,4.0,9.0,79,0.00,,,0.08,,2013-06-01 21:12:00,
2013-06-01 17:22:00,83.0,76.0,29.95,East,81,4.0,9.0,79,0.00,,,0.08,,2013-06-01 21:22:00,
2013-06-01 17:33:00,84.0,76.0,29.97,ESE,110,6.0,13.0,77,0.00,,,0.00,,2013-06-01 21:33:00,
2013-06-01 17:43:00,84.0,76.0,29.97,ESE,110,6.0,13.0,77,0.00,,,0.00,,2013-06-01 21:43:00,
2013-06-01 17:53:00,81.0,74.0,29.97,SE,132,8.0,14.0,79,0.00,,,0.00,,2013-06-01 21:53:00,
2013-06-01 18:03:00,80.0,74.0,29.97,ESE,122,6.0,11.0,83,0.00,,,0.00,,2013-06-01 22:03:00,
2013-06-01 18:12:00,80.0,74.0,29.97,ESE,122,6.0,11.0,83,0.00,,,0.00,,2013-06-01 22:12:00,
2013-06-01 18:23:00,79.0,76.0,29.97,East,101,5.0,12.0,90,0.00,,,0.00,,2013-06-01 22:23:00,
2013-06-01 18:33:00,78.0,76.0,29.97,SE,139,6.0,11.0,93,0.02,,,0.02,,2013-06-01 22:33:00,
2013-06-01 18:42:00,78.0,76.0,29.97,SE,139,6.0,11.0,93,0.02,,,0.02,,2013-06-01 22:42:00,
2013-06-01 18:53:00,77.0,75.0,29.98,ESE,109,5.0,11.0,94,0.02,,,0.02,,2013-06-01 22:53:00,
2013-06-01 19:02:00,77.0,75.0,29.98,SSE,148,5.0,15.0,95,0.02,,,0.02,,2013-06-01 23:02:00,
2013-06-01 19:12:00,77.0,75.0,29.98,SSE,148,5.0,15.0,95,0.02,,,0.02,,2013-06-01 23:12:00,
2013-06-01 19:22:00,76.0,74.0,29.98,ESE,117,6.0,11.0,95,0.02,,,0.02,,2013-06-01 23:22:00,
2013-06-01 19:32:00,76.0,75.0,29.99,SSE,148,3.0,9.0,96,0.00,,,0.02,,2013-06-01 23:32:00,
2013-06-01 19:42:00,76.0,75.0,29.99,SSE,148,3.0,9.0,96,0.00,,,0.02,,2013-06-01 23:42:00,
2013-06-01 19:52:00,76.0,75.0,30.00,SSE,150,4.0,11.0,96,0.01,,,0.03,,2013-06-01 23:52:00,
2013-06-01 20:02:00,75.0,74.0,29.99,SSE,164,4.0,8.0,96,0.01,,,0.03,,2013-06-02 00:02:00,
2013-06-01 20:11:00,75.0,74.0,29.99,SSE,164,4.0,8.0,96,0.01,,,0.03,,2013-06-02 00:11:00,
2013-06-01 20:22:00,75.0,74.0,29.98,SE,138,5.0,10.0,96,0.01,,,0.03,,2013-06-02 00:22:00,
2013-06-01 20:32:00,75.0,74.0,30.00,SE,143,2.0,10.0,96,0.01,,,0.03,,2013-06-02 00:32:00,
2013-06-01 20:42:00,75.0,74.0,30.00,SE,143,2.0,10.0,96,0.01,,,0.03,,2013-06-02 00:42:00,
2013-06-01 20:51:00,75.0,74.0,30.01,SE,142,3.0,8.0,96,0.00,,,0.03,,2013-06-02 00:51:00,
2013-06-01 21:02:00,74.0,73.0,30.02,South,186,1.0,7.0,96,0.00,,,0.03,,2013-06-02 01:02:00,
2013-06-01 21:11:00,74.0,73.0,30.02,South,186,1.0,7.0,96,0.00,,,0.03,,2013-06-02 01:11:00,
2013-06-01 21:21:00,73.0,72.0,30.02,SSW,194,1.0,9.0,96,0.00,,,0.03,,2013-06-02 01:21:00,
2013-06-01 21:32:00,73.0,72.0,30.02,SE,142,1.0,8.0,96,0.00,,,0.03,,2013-06-02 01:32:00,
2013-06-01 21:42:00,73.0,72.0,30.02,SE,142,1.0,8.0,96,0.00,,,0.03,,2013-06-02 01:42:00,
2013-06-01 21:52:00,73.0,72.0,30.01,SSE,150,0.0,4.0,96,0.00,,,0.03,,2013-06-02 01:52:00,
2013-06-01 22:02:00,73.0,72.0,30.00,South,177,1.0,6.0,96,0.01,,,0.04,,2013-06-02 02:02:00,
2013-06-01 22:12:00,73.0,72.0,30.00,South,177,1.0,6.0,96,0.01,,,0.04,,2013-06-02 02:12:00,
2013-06-01 22:21:00,73.0,72.0,30.02,WSW,248,1.0,3.0,96,0.02,,,0.05,,2013-06-02 02:21:00,
2013-06-01 22:32:00,73.0,72.0,30.02,SW,220,1.0,5.0,97,0.03,,,0.06,,2013-06-02 02:32:00,
2013-06-01 22:42:00,73.0,72.0,30.02,SW,220,1.0,5.0,97,0.03,,,0.06,,2013-06-02 02:42:00,
2013-06-01 22:52:00,73.0,72.0,30.03,NW,304,0.0,3.0,97,0.04,,,0.07,,2013-06-02 02:52:00,
2013-06-01 23:02:00,73.0,72.0,30.03,West,278,0.0,2.0,97,0.04,,,0.08,,2013-06-02 03:02:00,
2013-06-01 23:11:00,73.0,72.0,30.03,West,278,0.0,2.0,97,0.04,,,0.08,,2013-06-02 03:11:00,
2013-06-01 23:21:00,72.0,71.0,30.02,North,5,1.0,3.0,97,0.03,,,0.08,,2013-06-02 03:21:00,
2013-06-01 23:33:00,72.0,71.0,30.02,NNE,30,0.0,5.0,97,0.02,,,0.08,,2013-06-02 03:33:00,
2013-06-01 23:43:00,72.0,71.0,30.02,NNE,30,0.0,5.0,97,0.02,,,0.08,,2013-06-02 03:43:00,
2013-06-01 23:53:00,72.0,71.0,30.02,ENE,69,0.0,2.0,97,0.01,,,0.08,,2013-06-02 03:53:00,